SCP
-0 -0 -0 -0 -0 -0 -0 -0 0 0 0 0 0 0 0 -0 0 0 0 -0 0 0 0 0 0 0 0 0 0 0 0 0 -0
-0 -0 -0 -0 -0 -0 -0 -0 -0 0 0 0 0 0 0 0 0 0 0 0 0 -0 0 0 0 0 0 0 0 0 0 0 -0
-0 -0 -0 0 0 -0 -0 -0 -0 -0 -0 -0 0 0 0 0 0 0 -0 0 0 -0 -0 -0 -0 0 0 0 0 0 0 0 -0
-0 -0 0 0 0 0 0 -0 -0 -0 -0 -0 -0 -0 -0 -0 0 0 0 0 -0 0 0 0 0 0 0 0 0 0 0 0 0
-0 -0 0 0 -0 -0 0 -0 -0 -0 -0 -0 -0 -0 -0 -0 0 0 0 0 0 0 0 0 0 0 0 0 0 0 -0 -0 0
-0 -0 0 -0 -0 0 0 0 -0 -0 0 0 0 0 -0 -0 -0 -0 -0 -0 0 0 0 0 0 0 0 0 0 -0 -0 -0 -0
-0 0 -0 -0 0 0 -0 0 -0 -0 -0 -0 -0 -0 -0 -0 -0 0 0 0 0 0 0 0 0 0 0 0 0 0 -0 -0 -0
-0 -0 0 -0 0 -0 0 0 0 -0 -0 -0 0 0 -0 -0 0 0 0 0 0 0 0 0 0 1 1 1 1 1 0 -0 0
-0 -0 0 0 -0 -0 0 -0 0 -0 -0 -0 0 0 0 0 0 0 0 0 0 1 1 1 1 1 1 1 1 0 0 0 0
-0 -0 0 0 -0 -0 0 -0 -0 -0 -0 -0 -0 -0 0 0 0 0 0 0 1 1 1 1 1 1 1 0 0 0 0 0 1
-0 -0 0 0 -0 -0 -0 -0 -0 -0 -0 -0 -0 -0 -0 0 0 0 0 0 0 0 0 0 0 0 0 0 0 0 0 0 1
-0 -0 -0 -0 -0 -0 -0 -0 -0 -0 -0 -0 -0 0 0 1 0 0 0 0 0 0 0 0 0 0 0 0 0 0 0 0 0
-0 -0 -0 -0 -0 -0 -0 -0 0 -0 -0 -0 0 0 0 0 0 0 0 0 0 0 0 0 0 0 0 0 0 0 0 0 0
-0 -0 -1 -0 -0 -0 -0 -0 0 0 0 0 0 0 0 0 0 0 0 0 0 0 0 0 0 0 0 0 0 0 0 0 0
-1 -1 -1 -1 -1 -1 -0 -0 0 0 0 0 0 0 0 0 0 0 0 0 0 0 0 0 0 0 0 0 0 0 0 0 0
-0 -1 -1 -1 -1 -1 -0 -0 0 0 0 0 0 0 0 0 0 0 0 0 0 0 0 0 0 0 0 0 0 0 0 0 0
0 0 -0 -1 -1 -1 -1 -0 0 -0 -0 -0 -0 -0 0 0 0 0 0 0 0 0 0 0 0 0 0 0 0 0 0 0 0
0 0 0 -0 -1 -0 -0 -0 0 0 0 0 0 0 0 0 0 0 0 0 0 0 0 0 0 0 0 0 0 0 0 0 0
0 0 0 0 0 0 -0 0 0 0 0 0 0 0 0 0 0 0 0 0 0 -0 0 0 0 0 0 0 0 0 0 0 0
1 1 0 1 1 1 0 0 0 0 0 0 0 0 0 0 0 0 0 0 0 0 0 0 0 0 0 0 0 0 0 0 0
Wind_Speed_500mb
49 49 49 51 53 54 55 56 56 54 47 47 48 50 47 40 38 31 26 25 21 17 17 13 19 16 12 7 8 8 3 13 15
51 49 47 47 48 48 49 52 54 52 48 46 45 45 46 45 41 41 33 31 34 25 23 19 24 18 20 18 13 14 15 19 19
51 50 46 44 43 45 45 46 48 48 47 48 46 44 42 42 39 42 40 38 38 35 33 31 24 24 24 23 20 21 31 31 29
50 50 49 46 43 40 39 38 41 45 48 45 45 45 43 42 41 38 36 40 39 34 30 27 20 25 30 31 29 26 29 31 30
47 49 48 46 44 43 42 43 42 41 39 39 38 37 38 38 39 43 39 38 35 30 27 27 23 31 33 31 30 29 30 31 29
38 45 47 45 45 45 44 43 43 41 39 36 33 32 32 32 30 29 28 30 30 31 30 32 31 33 29 25 25 27 28 33 32
36 42 46 43 44 41 39 38 38 39 37 36 33 31 31 29 29 28 26 27 29 29 32 34 30 25 24 22 21 25 28 31 32
37 40 42 42 41 35 33 34 35 35 35 34 30 34 36 34 32 30 29 28 29 26 24 21 23 24 25 26 19 17 20 22 25
37 40 41 40 41 38 34 32 34 34 38 33 33 35 31 32 33 31 28 27 25 26 27 26 20 14 12 13 13 18 20 20 20
32 40 42 43 43 39 35 32 31 33 38 39 38 38 34 30 27 24 22 19 18 17 15 16 16 14 13 14 13 13 11 14 18
33 42 46 44 41 39 38 36 36 40 41 42 41 37 33 27 24 21 18 16 15 13 12 14 13 12 11 12 12 13 13 12 15
41 47 46 44 43 45 45 44 47 49 43 40 38 33 30 26 22 18 15 14 14 13 13 11 9 8 6 4 5 6 5 0 6
39 47 46 46 46 49 48 49 53 48 45 43 38 32 26 21 18 16 16 15 14 12 12 13 12 8 6 4 4 5 5 1 8
44 49 48 50 50 50 50 52 48 44 42 36 31 28 24 21 19 17 15 17 18 18 16 12 10 9 12 14 13 14 14 11 9
52 53 54 53 51 48 47 47 46 42 39 36 32 27 25 23 23 22 24 21 19 17 17 19 21 22 19 16 16 16 17 18 20
53 56 55 54 54 52 49 49 46 46 43 38 33 29 26 27 30 31 27 24 25 23 21 18 17 15 13 12 12 12 12 13 15
52 56 56 57 56 58 57 54 50 42 39 36 33 29 30 33 34 33 28 22 20 18 16 15 13 11 11 10 10 10 11 10 10
48 53 54 57 56 53 59 62 55 48 42 39 34 32 34 34 31 29 29 27 25 17 20 18 13 13 14 12 13 16 14 12 9
37 51 55 59 56 54 57 63 57 52 44 40 36 36 35 34 33 31 25 26 29 25 23 16 15 19 20 21 21 20 18 17 16
30 41 54 60 57 54 58 62 59 55 49 42 38 37 37 36 32 29 28 26 27 32 26 21 20 21 21 22 20 21 22 21 24
Wind_Direction_500mb
183 187 193 197 200 202 205 208 211 212 218 223 229 237 242 243 249 241 243 253 253 278 270 277 281 280 291 317 327 314 30 330 272
182 187 191 194 197 200 203 206 210 213 214 219 224 229 236 241 246 245 239 244 265 272 269 267 290 278 274 271 264 270 262 285 285
184 187 189 190 194 197 202 205 208 212 216 221 231 229 229 236 237 245 250 259 267 265 263 267 264 268 269 267 261 252 258 267 268
188 189 192 192 193 196 199 200 206 210 214 217 222 225 222 226 229 235 249 254 262 265 261 258 255 270 270 265 267 263 256 258 258
193 190 190 190 193 196 202 202 203 205 209 213 216 218 220 224 238 239 243 250 253 253 243 242 262 276 264 262 260 263 264 253 256
181 183 182 184 190 197 201 205 206 208 211 212 209 214 216 217 220 228 229 231 230 233 249 264 269 262 259 260 255 252 253 248 247
172 178 177 183 189 194 202 202 208 206 206 210 212 204 206 208 206 211 215 226 234 246 259 264 255 246 254 254 264 260 258 258 255
170 175 176 180 183 183 191 196 199 203 198 197 200 214 207 205 209 220 230 238 247 246 244 241 244 251 254 267 268 253 260 257 255
181 181 182 180 184 178 189 197 201 202 198 203 210 202 196 207 218 225 232 233 228 237 242 238 234 228 253 267 257 261 255 258 260
183 186 182 178 182 183 187 185 178 175 178 182 183 185 193 198 199 204 213 212 213 211 206 211 221 244 258 264 266 273 271 248 250
177 176 176 178 177 173 167 163 157 159 160 167 170 171 176 180 186 197 206 210 214 217 217 221 237 248 254 270 281 277 270 260 246
177 172 173 172 169 164 163 162 165 165 159 161 165 171 177 185 194 198 207 216 222 227 226 221 221 228 242 282 319 333 353 130 13
181 177 172 168 164 162 159 158 163 162 163 169 174 178 178 182 189 198 206 216 214 205 172 140 121 121 108 75 360 338 332 28 74
183 179 174 169 165 163 160 161 163 162 170 171 174 175 179 185 191 192 185 173 158 146 146 142 131 108 86 76 68 61 56 57 87
182 180 177 172 164 164 164 164 167 168 172 176 177 178 180 173 164 149 154 154 150 144 134 124 111 99 85 71 65 58 60 63 74
189 185 182 175 171 167 168 173 176 175 180 177 174 172 164 156 153 153 150 148 138 123 117 115 110 103 94 79 63 50 59 67 73
197 192 188 182 180 173 173 178 182 186 182 174 171 164 157 155 155 151 140 130 127 128 125 121 113 109 103 93 78 70 83 61 54
206 201 196 190 189 184 179 180 185 184 185 175 164 160 154 152 155 151 144 149 139 139 142 132 120 115 117 111 96 95 96 98 98
216 208 201 198 194 188 185 183 185 183 183 172 166 158 158 162 161 159 159 144 143 132 124 114 116 123 119 121 110 105 97 91 85
228 214 207 203 197 190 185 185 186 183 179 170 170 162 163 163 162 164 160 152 146 144 136 123 113 108 106 101 99 90 82 75 68
Wind_Speed_850mb
49 49 49 51 53 54 55 56 56 54 47 47 48 50 47 40 38 31 26 25 21 17 17 13 19 16 12 7 8 8 3 13 15
51 49 47 47 48 48 49 52 54 52 48 46 45 45 46 45 41 41 33 31 34 25 23 19 24 18 20 18 13 14 15 19 19
51 50 46 44 43 45 45 46 48 48 47 48 46 44 42 42 39 42 40 38 38 35 33 31 24 24 24 23 20 21 31 31 29
50 50 49 46 43 40 39 38 41 45 48 45 45 45 43 42 41 38 36 40 39 34 30 27 20 25 30 31 29 26 29 31 30
47 49 48 46 44 43 42 43 42 41 39 39 38 37 38 38 39 43 39 38 35 30 27 27 23 31 33 31 30 29 30 31 29
38 45 47 45 45 45 44 43 43 41 39 36 33 32 32 32 30 29 28 30 30 31 30 32 31 33 29 25 25 27 28 33 32
36 42 46 43 44 41 39 38 38 39 37 36 33 31 31 29 29 28 26 27 29 29 32 34 30 25 24 22 21 25 28 31 32
37 40 42 42 41 35 33 34 35 35 35 34 30 34 36 34 32 30 29 28 29 26 24 21 23 24 25 26 19 17 20 22 25
37 40 41 40 41 38 34 32 34 34 38 33 33 35 31 32 33 31 28 27 25 26 27 26 20 14 12 13 13 18 20 20 20
32 40 42 43 43 39 35 32 31 33 38 39 38 38 34 30 27 24 22 19 18 17 15 16 16 14 13 14 13 13 11 14 18
33 42 46 44 41 39 38 36 36 40 41 42 41 37 33 27 24 21 18 16 15 13 12 14 13 12 11 12 12 13 13 12 15
41 47 46 44 43 45 45 44 47 49 43 40 38 33 30 26 22 18 15 14 14 13 13 11 9 8 6 4 5 6 5 0 6
39 47 46 46 46 49 48 49 53 48 45 43 38 32 26 21 18 16 16 15 14 12 12 13 12 8 6 4 4 5 5 1 8
44 49 48 50 50 50 50 52 48 44 42 36 31 28 24 21 19 17 15 17 18 18 16 12 10 9 12 14 13 14 14 11 9
52 53 54 53 51 48 47 47 46 42 39 36 32 27 25 23 23 22 24 21 19 17 17 19 21 22 19 16 16 16 17 18 20
53 56 55 54 54 52 49 49 46 46 43 38 33 29 26 27 30 31 27 24 25 23 21 18 17 15 13 12 12 12 12 13 15
52 56 56 57 56 58 57 54 50 42 39 36 33 29 30 33 34 33 28 22 20 18 16 15 13 11 11 10 10 10 11 10 10
48 53 54 57 56 53 59 62 55 48 42 39 34 32 34 34 31 29 29 27 25 17 20 18 13 13 14 12 13 16 14 12 9
37 51 55 59 56 54 57 63 57 52 44 40 36 36 35 34 33 31 25 26 29 25 23 16 15 19 20 21 21 20 18 17 16
30 41 54 60 57 54 58 62 59 55 49 42 38 37 37 36 32 29 28 26 27 32 26 21 20 21 21 22 20 21 22 21 24
Wind_Direction_850mb
183 187 193 197 200 202 205 208 211 212 218 223 229 237 242 243 249 241 243 253 253 278 270 277 281 280 291 317 327 314 30 330 272
182 187 191 194 197 200 203 206 210 213 214 219 224 229 236 241 246 245 239 244 265 272 269 267 290 278 274 271 264 270 262 285 285
184 187 189 190 194 197 202 205 208 212 216 221 231 229 229 236 237 245 250 259 267 265 263 267 264 268 269 267 261 252 258 267 268
188 189 192 192 193 196 199 200 206 210 214 217 222 225 222 226 229 235 249 254 262 265 261 258 255 270 270 265 267 263 256 258 258
193 190 190 190 193 196 202 202 203 205 209 213 216 218 220 224 238 239 243 250 253 253 243 242 262 276 264 262 260 263 264 253 256
181 183 182 184 190 197 201 205 206 208 211 212 209 214 216 217 220 228 229 231 230 233 249 264 269 262 259 260 255 252 253 248 247
172 178 177 183 189 194 202 202 208 206 206 210 212 204 206 208 206 211 215 226 234 246 259 264 255 246 254 254 264 260 258 258 255
170 175 176 180 183 183 191 196 199 203 198 197 200 214 207 205 209 220 230 238 247 246 244 241 244 251 254 267 268 253 260 257 255
181 181 182 180 184 178 189 197 201 202 198 203 210 202 196 207 218 225 232 233 228 237 242 238 234 228 253 267 257 261 255 258 260
183 186 182 178 182 183 187 185 178 175 178 182 183 185 193 198 199 204 213 212 213 211 206 211 221 244 258 264 266 273 271 248 250
177 176 176 178 177 173 167 163 157 159 160 167 170 171 176 180 186 197 206 210 214 217 217 221 237 248 254 270 281 277 270 260 246
177 172 173 172 169 164 163 162 165 165 159 161 165 171 177 185 194 198 207 216 222 227 226 221 221 228 242 282 319 333 353 130 13
181 177 172 168 164 162 159 158 163 162 163 169 174 178 178 182 189 198 206 216 214 205 172 140 121 121 108 75 360 338 332 28 74
183 179 174 169 165 163 160 161 163 162 170 171 174 175 179 185 191 192 185 173 158 146 146 142 131 108 86 76 68 61 56 57 87
182 180 177 172 164 164 164 164 167 168 172 176 177 178 180 173 164 149 154 154 150 144 134 124 111 99 85 71 65 58 60 63 74
189 185 182 175 171 167 168 173 176 175 180 177 174 172 164 156 153 153 150 148 138 123 117 115 110 103 94 79 63 50 59 67 73
197 192 188 182 180 173 173 178 182 186 182 174 171 164 157 155 155 151 140 130 127 128 125 121 113 109 103 93 78 70 83 61 54
206 201 196 190 189 184 179 180 185 184 185 175 164 160 154 152 155 151 144 149 139 139 142 132 120 115 117 111 96 95 96 98 98
216 208 201 198 194 188 185 183 185 183 183 172 166 158 158 162 161 159 159 144 143 132 124 114 116 123 119 121 110 105 97 91 85
228 214 207 203 197 190 185 185 186 183 179 170 170 162 163 163 162 164 160 152 146 144 136 123 113 108 106 101 99 90 82 75 68